Time,TemperatureF,DewpointF,PressureIn,WindDirection,WindDirectionDegrees,WindSpeedMPH,WindSpeedGustMPH,Humidity,HourlyPrecipIn,Conditions,Clouds,dailyrainin,SoftwareType,DateUTC
2013-08-04 00:00:00,56.3,49.5,28.91,WNW,292,0.0,0.0,78,0.00,,,0.00,VWS V14.01,2013-08-04 05:00:00,
2013-08-04 00:05:00,56.7,50.2,28.91,NNW,338,0.0,0.0,79,0.00,,,0.00,VWS V14.01,2013-08-04 05:05:00,
2013-08-04 00:10:00,55.9,48.5,28.88,NW,315,0.0,0.0,76,0.00,,,0.00,VWS V14.01,2013-08-04 05:10:00,
2013-08-04 00:15:00,55.6,47.4,28.88,NW,315,0.0,0.0,74,0.00,,,0.00,VWS V14.01,2013-08-04 05:15:00,
2013-08-04 00:19:00,54.9,46.7,28.88,NNW,338,0.0,0.0,74,0.00,,,0.00,VWS V14.01,2013-08-04 05:19:00,
2013-08-04 00:20:00,54.9,46.7,28.88,NNW,338,0.0,0.0,74,0.00,,,0.00,VWS V14.01,2013-08-04 05:20:00,
2013-08-04 00:25:00,54.7,46.6,28.88,WNW,292,0.0,0.0,74,0.00,,,0.00,VWS V14.01,2013-08-04 05:25:00,
2013-08-04 00:30:00,54.9,47.1,28.88,WNW,292,0.0,0.0,75,0.00,,,0.00,VWS V14.01,2013-08-04 05:30:00,
2013-08-04 00:35:00,55.0,47.6,28.88,NW,315,0.0,0.0,76,0.00,,,0.00,VWS V14.01,2013-08-04 05:35:00,
2013-08-04 00:40:00,54.9,47.8,28.91,NW,315,0.0,0.0,77,0.00,,,0.00,VWS V14.01,2013-08-04 05:40:00,
2013-08-04 00:45:00,54.5,46.8,28.91,NW,315,0.0,0.0,75,0.00,,,0.00,VWS V14.01,2013-08-04 05:45:00,
2013-08-04 00:50:00,54.1,46.4,28.91,WNW,292,0.0,0.0,75,0.00,,,0.00,VWS V14.01,2013-08-04 05:50:00,
2013-08-04 00:54:00,53.8,46.0,28.88,NNW,338,0.0,0.0,75,0.00,,,0.00,VWS V14.01,2013-08-04 05:54:00,
2013-08-04 00:55:00,53.8,46.0,28.88,NNW,338,0.0,0.0,75,0.00,,,0.00,VWS V14.01,2013-08-04 05:55:00,
2013-08-04 01:00:00,53.4,45.7,28.88,NNW,338,0.0,0.0,75,0.00,,,0.00,VWS V14.01,2013-08-04 06:00:00,
2013-08-04 01:05:00,53.1,45.4,28.88,NNW,338,0.0,0.0,75,0.00,,,0.00,VWS V14.01,2013-08-04 06:05:00,
2013-08-04 01:10:00,52.9,45.2,28.91,NNW,338,0.0,0.0,75,0.00,,,0.00,VWS V14.01,2013-08-04 06:10:00,
2013-08-04 01:15:00,52.7,45.4,28.91,SW,225,0.0,0.0,76,0.00,,,0.00,VWS V14.01,2013-08-04 06:15:00,
2013-08-04 01:20:00,52.7,45.4,28.91,WNW,292,0.0,0.0,76,0.00,,,0.00,VWS V14.01,2013-08-04 06:20:00,
2013-08-04 01:24:00,52.7,45.7,28.88,NNW,338,0.0,0.0,77,0.00,,,0.00,VWS V14.01,2013-08-04 06:24:00,
2013-08-04 01:25:00,52.7,45.7,28.88,NNW,338,0.0,0.0,77,0.00,,,0.00,VWS V14.01,2013-08-04 06:25:00,
2013-08-04 01:30:00,54.5,50.4,28.88,NNW,338,0.0,0.0,86,0.00,,,0.00,VWS V14.01,2013-08-04 06:30:00,
2013-08-04 01:35:00,53.8,50.0,28.88,NW,315,0.0,0.0,87,0.00,,,0.00,VWS V14.01,2013-08-04 06:35:00,
2013-08-04 01:39:00,53.1,48.0,28.88,NNW,338,0.0,0.0,83,0.00,,,0.00,VWS V14.01,2013-08-04 06:39:00,
2013-08-04 01:40:00,53.1,48.0,28.88,NNW,338,0.0,0.0,83,0.00,,,0.00,VWS V14.01,2013-08-04 06:40:00,
2013-08-04 01:45:00,52.9,47.2,28.88,NNW,338,0.0,0.0,81,0.00,,,0.00,VWS V14.01,2013-08-04 06:45:00,
2013-08-04 01:50:00,52.9,46.9,28.88,WSW,248,0.0,0.0,80,0.00,,,0.00,VWS V14.01,2013-08-04 06:50:00,
2013-08-04 01:55:00,52.5,46.2,28.88,WSW,248,0.0,0.0,79,0.00,,,0.00,VWS V14.01,2013-08-04 06:55:00,
2013-08-04 02:00:00,52.2,45.8,28.88,WSW,248,0.0,0.0,79,0.00,,,0.00,VWS V14.01,2013-08-04 07:00:00,
2013-08-04 02:04:00,52.2,45.8,28.88,WSW,248,0.0,0.0,79,0.00,,,0.00,VWS V14.01,2013-08-04 07:04:00,
2013-08-04 02:05:00,52.2,45.8,28.88,WSW,248,0.0,0.0,79,0.00,,,0.00,VWS V14.01,2013-08-04 07:05:00,
2013-08-04 02:10:00,51.8,45.5,28.88,NNW,338,0.0,0.0,79,0.00,,,0.00,VWS V14.01,2013-08-04 07:10:00,
2013-08-04 02:15:00,52.7,46.7,28.88,WNW,292,0.0,0.0,80,0.00,,,0.00,VWS V14.01,2013-08-04 07:15:00,
2013-08-04 02:20:00,53.2,48.2,28.88,NW,315,0.0,0.0,83,0.00,,,0.00,VWS V14.01,2013-08-04 07:20:00,
2013-08-04 02:25:00,52.9,47.9,28.88,NW,315,0.0,0.0,83,0.00,,,0.00,VWS V14.01,2013-08-04 07:25:00,
2013-08-04 02:30:00,52.7,47.4,28.88,WNW,292,0.0,0.0,82,0.00,,,0.00,VWS V14.01,2013-08-04 07:30:00,
2013-08-04 02:34:00,52.3,46.7,28.88,West,270,0.0,0.0,81,0.00,,,0.00,VWS V14.01,2013-08-04 07:34:00,
2013-08-04 02:35:00,52.3,46.7,28.88,West,270,0.0,0.0,81,0.00,,,0.00,VWS V14.01,2013-08-04 07:35:00,
2013-08-04 02:40:00,52.5,47.2,28.88,WNW,292,0.0,0.0,82,0.00,,,0.00,VWS V14.01,2013-08-04 07:40:00,
2013-08-04 02:45:00,52.9,47.9,28.88,NNW,338,0.0,0.0,83,0.00,,,0.00,VWS V14.01,2013-08-04 07:45:00,
2013-08-04 02:49:00,53.1,48.0,28.88,NW,315,0.0,0.0,83,0.00,,,0.00,VWS V14.01,2013-08-04 07:49:00,
2013-08-04 02:50:00,53.1,48.0,28.88,NW,315,0.0,0.0,83,0.00,,,0.00,VWS V14.01,2013-08-04 07:50:00,
2013-08-04 02:55:00,53.1,48.4,28.85,NNW,338,0.0,0.0,84,0.00,,,0.00,VWS V14.01,2013-08-04 07:55:00,
2013-08-04 02:59:00,53.2,48.8,28.85,SW,225,0.0,0.0,85,0.00,,,0.00,VWS V14.01,2013-08-04 07:59:00,
2013-08-04 03:00:00,53.2,48.8,28.85,SW,225,0.0,0.0,85,0.00,,,0.00,VWS V14.01,2013-08-04 08:00:00,
2013-08-04 03:05:00,53.2,48.5,28.85,WNW,292,0.0,0.0,84,0.00,,,0.00,VWS V14.01,2013-08-04 08:05:00,
2013-08-04 03:10:00,53.2,48.2,28.85,WNW,292,0.0,0.0,83,0.00,,,0.00,VWS V14.01,2013-08-04 08:10:00,
2013-08-04 03:14:00,52.9,47.5,28.85,WSW,248,0.0,0.0,82,0.00,,,0.00,VWS V14.01,2013-08-04 08:14:00,
2013-08-04 03:15:00,52.9,47.5,28.85,WSW,248,0.0,0.0,82,0.00,,,0.00,VWS V14.01,2013-08-04 08:15:00,
2013-08-04 03:20:00,52.9,47.5,28.85,NW,315,0.0,0.0,82,0.00,,,0.00,VWS V14.01,2013-08-04 08:20:00,
2013-08-04 03:24:00,52.9,47.5,28.85,NNW,338,0.0,0.0,82,0.00,,,0.00,VWS V14.01,2013-08-04 08:24:00,
2013-08-04 03:25:00,52.9,47.5,28.85,NNW,338,0.0,0.0,82,0.00,,,0.00,VWS V14.01,2013-08-04 08:25:00,
2013-08-04 03:30:00,53.1,48.0,28.85,WSW,248,0.0,0.0,83,0.00,,,0.00,VWS V14.01,2013-08-04 08:30:00,
2013-08-04 03:35:00,53.1,48.0,28.85,WNW,292,0.0,0.0,83,0.00,,,0.00,VWS V14.01,2013-08-04 08:35:00,
2013-08-04 03:40:00,52.5,46.9,28.85,SW,225,0.0,0.0,81,0.00,,,0.00,VWS V14.01,2013-08-04 08:40:00,
2013-08-04 03:45:00,52.0,46.0,28.85,South,180,0.0,0.0,80,0.00,,,0.00,VWS V14.01,2013-08-04 08:45:00,
2013-08-04 03:50:00,51.6,45.7,28.85,South,180,0.0,0.0,80,0.00,,,0.00,VWS V14.01,2013-08-04 08:50:00,
2013-08-04 03:55:00,51.3,45.3,28.85,South,180,0.0,0.0,80,0.00,,,0.00,VWS V14.01,2013-08-04 08:55:00,
2013-08-04 04:00:00,51.1,45.1,28.85,South,180,0.0,0.0,80,0.00,,,0.00,VWS V14.01,2013-08-04 09:00:00,
2013-08-04 04:05:00,50.9,45.3,28.85,South,180,0.0,0.0,81,0.00,,,0.00,VWS V14.01,2013-08-04 09:05:00,
2013-08-04 04:10:00,50.7,45.1,28.85,South,180,0.0,0.0,81,0.00,,,0.00,VWS V14.01,2013-08-04 09:10:00,
2013-08-04 04:15:00,50.4,44.4,28.85,SSW,202,0.0,0.0,80,0.00,,,0.00,VWS V14.01,2013-08-04 09:15:00,
2013-08-04 04:20:00,50.4,45.1,28.85,SSE,158,0.0,0.0,82,0.00,,,0.00,VWS V14.01,2013-08-04 09:20:00,
2013-08-04 04:24:00,50.2,44.9,28.85,SSE,158,0.0,0.0,82,0.00,,,0.00,VWS V14.01,2013-08-04 09:24:00,
2013-08-04 04:25:00,50.2,44.9,28.85,SSE,158,0.0,0.0,82,0.00,,,0.00,VWS V14.01,2013-08-04 09:25:00,
2013-08-04 04:30:00,50.2,44.9,28.85,WSW,248,0.0,0.0,82,0.00,,,0.00,VWS V14.01,2013-08-04 09:30:00,
2013-08-04 04:34:00,49.8,44.5,28.85,SSE,158,0.0,0.0,82,0.00,,,0.00,VWS V14.01,2013-08-04 09:34:00,
2013-08-04 04:35:00,49.8,44.6,28.85,SSE,158,0.0,0.0,82,0.00,,,0.00,VWS V14.01,2013-08-04 09:35:00,
2013-08-04 04:40:00,49.8,44.6,28.85,SSW,202,0.0,0.0,82,0.00,,,0.00,VWS V14.01,2013-08-04 09:40:00,
2013-08-04 04:45:00,49.8,44.5,28.85,SSW,202,0.0,0.0,82,0.00,,,0.00,VWS V14.01,2013-08-04 09:45:00,
2013-08-04 04:50:00,50.0,45.0,28.85,SSW,202,0.0,0.0,83,0.00,,,0.00,VWS V14.01,2013-08-04 09:50:00,
2013-08-04 04:55:00,49.8,45.2,28.85,North,0,0.0,0.0,84,0.00,,,0.00,VWS V14.01,2013-08-04 09:55:00,
2013-08-04 05:00:00,50.4,46.0,28.85,NW,315,0.0,0.0,85,0.00,,,0.00,VWS V14.01,2013-08-04 10:00:00,
2013-08-04 05:05:00,50.2,45.5,28.85,NW,315,0.0,0.0,84,0.00,,,0.00,VWS V14.01,2013-08-04 10:05:00,
2013-08-04 05:10:00,50.2,45.5,28.88,NNW,338,0.0,0.0,84,0.00,,,0.00,VWS V14.01,2013-08-04 10:10:00,
2013-08-04 05:15:00,50.2,45.5,28.88,NW,315,0.0,0.0,84,0.00,,,0.00,VWS V14.01,2013-08-04 10:15:00,
2013-08-04 05:19:00,50.0,45.0,28.88,WNW,292,0.0,0.0,83,0.00,,,0.00,VWS V14.01,2013-08-04 10:19:00,
2013-08-04 05:20:00,50.0,45.0,28.88,WNW,292,0.0,0.0,83,0.00,,,0.00,VWS V14.01,2013-08-04 10:20:00,
2013-08-04 05:25:00,50.0,45.0,28.88,SSW,202,0.0,0.0,83,0.00,,,0.00,VWS V14.01,2013-08-04 10:25:00,
2013-08-04 05:29:00,50.0,45.4,28.88,WNW,292,0.0,0.0,84,0.00,,,0.00,VWS V14.01,2013-08-04 10:29:00,
2013-08-04 05:30:00,50.0,45.4,28.88,WNW,292,0.0,0.0,84,0.00,,,0.00,VWS V14.01,2013-08-04 10:30:00,
2013-08-04 05:35:00,50.2,45.5,28.88,WSW,248,0.0,0.0,84,0.00,,,0.00,VWS V14.01,2013-08-04 10:35:00,
2013-08-04 05:40:00,50.0,45.0,28.88,WSW,248,0.0,0.0,83,0.00,,,0.00,VWS V14.01,2013-08-04 10:40:00,
2013-08-04 05:44:00,49.8,44.9,28.88,ENE,68,0.0,0.0,83,0.00,,,0.00,VWS V14.01,2013-08-04 10:44:00,
2013-08-04 05:45:00,49.8,44.9,28.88,ENE,68,0.0,0.0,83,0.00,,,0.00,VWS V14.01,2013-08-04 10:45:00,
2013-08-04 05:50:00,49.8,45.2,28.88,ENE,68,0.0,0.0,84,0.00,,,0.00,VWS V14.01,2013-08-04 10:50:00,
2013-08-04 05:55:00,50.0,45.4,28.88,NE,45,0.0,0.0,84,0.00,,,0.00,VWS V14.01,2013-08-04 10:55:00,
2013-08-04 06:00:00,50.5,46.2,28.88,NNE,22,3.4,3.4,85,0.00,,,0.00,VWS V14.01,2013-08-04 11:00:00,
2013-08-04 06:05:00,50.9,46.6,28.88,NW,315,0.0,3.6,85,0.00,,,0.00,VWS V14.01,2013-08-04 11:05:00,
2013-08-04 06:10:00,51.1,47.0,28.85,WNW,292,0.0,0.9,86,0.00,,,0.00,VWS V14.01,2013-08-04 11:10:00,
2013-08-04 06:15:00,50.7,46.4,28.85,NW,315,0.0,0.0,85,0.00,,,0.00,VWS V14.01,2013-08-04 11:15:00,
2013-08-04 06:20:00,50.4,45.7,28.85,WNW,292,0.0,0.0,84,0.00,,,0.00,VWS V14.01,2013-08-04 11:20:00,
2013-08-04 06:25:00,50.0,45.0,28.88,SSW,202,0.0,2.2,83,0.00,,,0.00,VWS V14.01,2013-08-04 11:25:00,
2013-08-04 06:30:00,50.0,45.0,28.88,WSW,248,0.0,0.0,83,0.00,,,0.00,VWS V14.01,2013-08-04 11:30:00,
2013-08-04 06:35:00,50.4,46.0,28.88,WNW,292,0.0,0.0,85,0.00,,,0.00,VWS V14.01,2013-08-04 11:35:00,
2013-08-04 06:39:00,51.1,46.7,28.88,NNW,338,0.0,0.0,85,0.00,,,0.00,VWS V14.01,2013-08-04 11:39:00,
2013-08-04 06:40:00,51.1,46.7,28.88,NNW,338,0.0,0.0,85,0.00,,,0.00,VWS V14.01,2013-08-04 11:40:00,
2013-08-04 06:44:00,52.3,48.9,28.88,NW,315,0.0,0.0,88,0.00,,,0.00,VWS V14.01,2013-08-04 11:44:00,
2013-08-04 06:45:00,52.3,48.9,28.88,NW,315,0.0,0.0,88,0.00,,,0.00,VWS V14.01,2013-08-04 11:45:00,
2013-08-04 06:50:00,53.1,49.6,28.88,WSW,248,0.0,0.0,88,0.00,,,0.00,VWS V14.01,2013-08-04 11:50:00,
2013-08-04 06:55:00,54.0,50.2,28.88,WSW,248,0.0,0.0,87,0.00,,,0.00,VWS V14.01,2013-08-04 11:55:00,
2013-08-04 07:00:00,55.2,51.4,28.88,ENE,68,0.0,0.0,87,0.00,,,0.00,VWS V14.01,2013-08-04 12:00:00,
2013-08-04 07:05:00,56.7,52.8,28.88,ENE,68,0.0,0.0,87,0.00,,,0.00,VWS V14.01,2013-08-04 12:05:00,
2013-08-04 07:10:00,57.7,53.3,28.88,ENE,68,0.0,0.0,85,0.00,,,0.00,VWS V14.01,2013-08-04 12:10:00,
2013-08-04 07:15:00,59.0,53.8,28.88,ENE,68,0.0,0.0,83,0.00,,,0.00,VWS V14.01,2013-08-04 12:15:00,
2013-08-04 07:20:00,59.9,53.7,28.88,ENE,68,0.0,0.0,80,0.00,,,0.00,VWS V14.01,2013-08-04 12:20:00,
2013-08-04 07:25:00,60.8,54.3,28.88,WSW,248,0.0,0.0,79,0.00,,,0.00,VWS V14.01,2013-08-04 12:25:00,
2013-08-04 07:30:00,61.7,54.8,28.88,NW,315,0.0,0.0,78,0.00,,,0.00,VWS V14.01,2013-08-04 12:30:00,
2013-08-04 07:35:00,61.7,51.4,28.88,NNW,338,0.0,0.0,69,0.00,,,0.00,VWS V14.01,2013-08-04 12:35:00,
2013-08-04 07:39:00,62.1,50.2,28.91,NNW,338,0.0,0.0,65,0.00,,,0.00,VWS V14.01,2013-08-04 12:39:00,
2013-08-04 07:40:00,62.1,50.2,28.91,NNW,338,0.0,0.0,65,0.00,,,0.00,VWS V14.01,2013-08-04 12:40:00,
2013-08-04 07:45:00,63.9,54.3,28.91,WNW,292,2.2,3.1,71,0.00,,,0.00,VWS V14.01,2013-08-04 12:45:00,
2013-08-04 07:50:00,65.1,54.7,28.91,NNW,338,0.0,2.2,69,0.00,,,0.00,VWS V14.01,2013-08-04 12:50:00,
2013-08-04 07:55:00,65.5,51.7,28.88,NE,45,3.4,4.3,61,0.00,,,0.00,VWS V14.01,2013-08-04 12:55:00,
2013-08-04 08:00:00,65.8,48.8,28.88,NNE,22,3.6,5.6,54,0.00,,,0.00,VWS V14.01,2013-08-04 13:00:00,
2013-08-04 08:05:00,66.2,49.1,28.88,ENE,68,2.7,4.3,54,0.00,,,0.00,VWS V14.01,2013-08-04 13:05:00,
2013-08-04 08:09:00,67.1,49.9,28.88,NNE,22,3.6,3.8,54,0.00,,,0.00,VWS V14.01,2013-08-04 13:09:00,
2013-08-04 08:10:00,67.1,49.9,28.88,NNE,22,3.6,3.8,54,0.00,,,0.00,VWS V14.01,2013-08-04 13:10:00,
2013-08-04 08:15:00,67.8,49.6,28.88,ENE,68,2.7,4.3,52,0.00,,,0.00,VWS V14.01,2013-08-04 13:15:00,
2013-08-04 08:20:00,68.7,49.9,28.88,NNE,22,2.0,3.1,51,0.00,,,0.00,VWS V14.01,2013-08-04 13:20:00,
2013-08-04 08:25:00,69.8,50.9,28.88,ENE,68,0.0,2.5,51,0.00,,,0.00,VWS V14.01,2013-08-04 13:25:00,
2013-08-04 08:30:00,70.5,49.9,28.88,NNE,22,2.5,3.4,48,0.00,,,0.00,VWS V14.01,2013-08-04 13:30:00,
2013-08-04 08:35:00,71.4,50.2,28.88,ENE,68,1.6,3.1,47,0.00,,,0.00,VWS V14.01,2013-08-04 13:35:00,
2013-08-04 08:40:00,72.1,49.0,28.91,East,90,0.9,3.8,44,0.00,,,0.00,VWS V14.01,2013-08-04 13:40:00,
2013-08-04 08:45:00,73.0,49.9,28.91,NE,45,3.1,3.1,44,0.00,,,0.00,VWS V14.01,2013-08-04 13:45:00,
2013-08-04 08:50:00,73.9,49.4,28.91,ENE,68,2.9,3.4,42,0.00,,,0.00,VWS V14.01,2013-08-04 13:50:00,
2013-08-04 08:55:00,74.3,49.1,28.88,ESE,112,2.7,3.6,41,0.00,,,0.00,VWS V14.01,2013-08-04 13:55:00,
2013-08-04 09:00:00,74.8,48.2,28.88,ESE,112,1.3,4.7,39,0.00,,,0.00,VWS V14.01,2013-08-04 14:00:00,
2013-08-04 09:05:00,75.4,48.7,28.88,ESE,112,3.4,5.4,39,0.00,,,0.00,VWS V14.01,2013-08-04 14:05:00,
2013-08-04 09:10:00,75.7,48.4,28.88,ESE,112,3.1,4.9,38,0.00,,,0.00,VWS V14.01,2013-08-04 14:10:00,
2013-08-04 09:14:00,76.3,48.1,28.88,ESE,112,3.1,4.9,37,0.00,,,0.00,VWS V14.01,2013-08-04 14:14:00,
2013-08-04 09:15:00,76.3,48.1,28.88,ESE,112,3.1,4.9,37,0.00,,,0.00,VWS V14.01,2013-08-04 14:15:00,
2013-08-04 09:20:00,76.8,47.9,28.88,NE,45,2.7,5.4,36,0.00,,,0.00,VWS V14.01,2013-08-04 14:20:00,
2013-08-04 09:25:00,77.2,47.4,28.88,ENE,68,4.0,6.5,35,0.00,,,0.00,VWS V14.01,2013-08-04 14:25:00,
2013-08-04 09:29:00,77.5,47.8,28.88,SE,135,2.9,4.9,35,0.00,,,0.00,VWS V14.01,2013-08-04 14:29:00,
2013-08-04 09:30:00,77.5,47.8,28.88,SE,135,2.9,4.9,35,0.00,,,0.00,VWS V14.01,2013-08-04 14:30:00,
2013-08-04 09:34:00,75.9,45.6,28.88,NNE,22,0.0,4.7,34,0.00,,,0.00,VWS V14.01,2013-08-04 14:34:00,
2013-08-04 09:35:00,75.9,45.6,28.88,NNE,22,0.0,4.7,34,0.00,,,0.00,VWS V14.01,2013-08-04 14:35:00,
2013-08-04 09:40:00,77.4,47.6,28.88,ENE,68,0.0,3.4,35,0.00,,,0.00,VWS V14.01,2013-08-04 14:40:00,
2013-08-04 09:45:00,79.0,47.5,28.88,ESE,112,2.7,4.0,33,0.00,,,0.00,VWS V14.01,2013-08-04 14:45:00,
2013-08-04 09:50:00,79.0,46.6,28.88,ENE,68,4.9,5.6,32,0.00,,,0.00,VWS V14.01,2013-08-04 14:50:00,
2013-08-04 09:55:00,79.5,47.1,28.85,NE,45,5.6,6.3,32,0.00,,,0.00,VWS V14.01,2013-08-04 14:55:00,
2013-08-04 10:00:00,79.9,47.4,28.85,ENE,68,4.3,6.0,32,0.00,,,0.00,VWS V14.01,2013-08-04 15:00:00,
2013-08-04 10:05:00,80.4,47.0,28.85,ESE,112,5.6,5.8,31,0.00,,,0.00,VWS V14.01,2013-08-04 15:05:00,
2013-08-04 10:10:00,80.8,47.4,28.88,ESE,112,3.1,6.0,31,0.00,,,0.00,VWS V14.01,2013-08-04 15:10:00,
2013-08-04 10:15:00,80.6,46.3,28.88,SE,135,9.6,9.6,30,0.00,,,0.00,VWS V14.01,2013-08-04 15:15:00,
2013-08-04 10:20:00,80.4,46.2,28.88,ESE,112,4.3,9.6,30,0.00,,,0.00,VWS V14.01,2013-08-04 15:20:00,
2013-08-04 10:25:00,80.6,46.3,28.88,ESE,112,4.3,8.5,30,0.00,,,0.00,VWS V14.01,2013-08-04 15:25:00,
2013-08-04 10:30:00,81.0,46.6,28.88,ESE,112,6.0,7.8,30,0.00,,,0.00,VWS V14.01,2013-08-04 15:30:00,
2013-08-04 10:35:00,80.8,46.5,28.88,ESE,112,4.3,6.5,30,0.00,,,0.00,VWS V14.01,2013-08-04 15:35:00,
2013-08-04 10:40:00,81.7,47.3,28.88,SE,135,6.0,6.5,30,0.00,,,0.00,VWS V14.01,2013-08-04 15:40:00,
2013-08-04 10:45:00,82.6,48.0,28.88,SE,135,3.8,7.4,30,0.00,,,0.00,VWS V14.01,2013-08-04 15:45:00,
2013-08-04 10:49:00,82.0,47.6,28.88,SE,135,8.7,10.7,30,0.00,,,0.00,VWS V14.01,2013-08-04 15:49:00,
2013-08-04 10:50:00,82.0,47.6,28.88,SE,135,8.7,10.7,30,0.00,,,0.00,VWS V14.01,2013-08-04 15:50:00,
2013-08-04 10:55:00,81.5,47.1,28.85,SE,135,8.1,9.2,30,0.00,,,0.00,VWS V14.01,2013-08-04 15:55:00,
2013-08-04 11:00:00,81.9,46.5,28.85,ESE,112,6.9,10.1,29,0.00,,,0.00,VWS V14.01,2013-08-04 16:00:00,
2013-08-04 11:05:00,80.2,46.0,28.85,SE,135,7.2,10.1,30,0.00,,,0.00,VWS V14.01,2013-08-04 16:05:00,
2013-08-04 11:10:00,81.0,45.8,28.88,SE,135,5.4,11.0,29,0.00,,,0.00,VWS V14.01,2013-08-04 16:10:00,
2013-08-04 11:15:00,82.8,47.3,28.88,SE,135,5.6,8.7,29,0.00,,,0.00,VWS V14.01,2013-08-04 16:15:00,
2013-08-04 11:20:00,82.2,46.8,28.88,SE,135,6.5,10.1,29,0.00,,,0.00,VWS V14.01,2013-08-04 16:20:00,
2013-08-04 11:25:00,81.7,46.4,28.85,ESE,112,7.8,11.0,29,0.00,,,0.00,VWS V14.01,2013-08-04 16:25:00,
2013-08-04 11:30:00,82.9,47.5,28.85,ESE,112,6.0,7.8,29,0.00,,,0.00,VWS V14.01,2013-08-04 16:30:00,
2013-08-04 11:35:00,82.2,46.8,28.85,SE,135,5.4,11.4,29,0.00,,,0.00,VWS V14.01,2013-08-04 16:35:00,
2013-08-04 11:40:00,82.2,46.8,28.85,SE,135,10.5,10.5,29,0.00,,,0.00,VWS V14.01,2013-08-04 16:40:00,
2013-08-04 11:45:00,81.9,44.6,28.85,SE,135,7.6,11.0,27,0.00,,,0.00,VWS V14.01,2013-08-04 16:45:00,
2013-08-04 11:49:00,81.7,45.4,28.85,ESE,112,7.8,8.1,28,0.00,,,0.00,VWS V14.01,2013-08-04 16:49:00,
2013-08-04 11:50:00,81.7,45.4,28.85,ESE,112,7.8,8.1,28,0.00,,,0.00,VWS V14.01,2013-08-04 16:50:00,
2013-08-04 11:55:00,82.8,46.4,28.85,SE,135,7.2,10.1,28,0.00,,,0.00,VWS V14.01,2013-08-04 16:55:00,
2013-08-04 12:00:00,83.7,46.2,28.85,SE,135,8.5,9.8,27,0.00,,,0.00,VWS V14.01,2013-08-04 17:00:00,
2013-08-04 12:05:00,85.1,48.4,28.85,SE,135,8.7,10.7,28,0.00,,,0.00,VWS V14.01,2013-08-04 17:05:00,
2013-08-04 12:10:00,83.5,45.0,28.85,SSE,158,6.3,14.3,26,0.00,,,0.00,VWS V14.01,2013-08-04 17:10:00,
2013-08-04 12:15:00,83.8,47.3,28.85,South,180,8.7,11.4,28,0.00,,,0.00,VWS V14.01,2013-08-04 17:15:00,
2013-08-04 12:19:00,82.9,46.5,28.85,SSE,158,12.8,12.8,28,0.00,,,0.00,VWS V14.01,2013-08-04 17:19:00,
2013-08-04 12:20:00,82.9,46.5,28.85,SSE,158,12.8,12.8,28,0.00,,,0.00,VWS V14.01,2013-08-04 17:20:00,
2013-08-04 12:25:00,82.9,46.5,28.85,South,180,8.5,12.8,28,0.00,,,0.00,VWS V14.01,2013-08-04 17:25:00,
2013-08-04 12:29:00,83.1,45.7,28.85,SSE,158,9.4,13.9,27,0.00,,,0.00,VWS V14.01,2013-08-04 17:29:00,
2013-08-04 12:30:00,83.1,45.7,28.85,SSE,158,9.4,13.9,27,0.00,,,0.00,VWS V14.01,2013-08-04 17:30:00,
2013-08-04 12:35:00,83.3,46.8,28.85,SE,135,5.4,11.2,28,0.00,,,0.00,VWS V14.01,2013-08-04 17:35:00,
2013-08-04 12:40:00,82.0,45.8,28.85,SSE,158,6.0,13.0,28,0.00,,,0.00,VWS V14.01,2013-08-04 17:40:00,
2013-08-04 12:44:00,81.7,45.4,28.85,SE,135,10.5,10.5,28,0.00,,,0.00,VWS V14.01,2013-08-04 17:44:00,
2013-08-04 12:45:00,81.7,45.4,28.85,SE,135,10.5,10.5,28,0.00,,,0.00,VWS V14.01,2013-08-04 17:45:00,
2013-08-04 12:50:00,81.3,46.1,28.85,SSE,158,8.5,10.7,29,0.00,,,0.00,VWS V14.01,2013-08-04 17:50:00,
2013-08-04 12:55:00,79.7,44.7,28.85,SE,135,5.6,12.3,29,0.00,,,0.00,VWS V14.01,2013-08-04 17:55:00,
2013-08-04 13:00:00,79.0,44.9,28.85,South,180,8.1,11.2,30,0.00,,,0.00,VWS V14.01,2013-08-04 18:00:00,
2013-08-04 13:05:00,78.8,44.8,28.85,SSW,202,7.2,10.7,30,0.00,,,0.00,VWS V14.01,2013-08-04 18:05:00,
2013-08-04 13:10:00,78.4,44.5,28.85,South,180,11.2,12.8,30,0.00,,,0.00,VWS V14.01,2013-08-04 18:10:00,
2013-08-04 13:15:00,77.7,43.8,28.85,SSE,158,11.0,11.4,30,0.00,,,0.00,VWS V14.01,2013-08-04 18:15:00,
2013-08-04 13:20:00,77.2,44.2,28.85,SSE,158,6.3,11.0,31,0.00,,,0.00,VWS V14.01,2013-08-04 18:20:00,
2013-08-04 13:25:00,76.8,43.9,28.85,South,180,6.5,11.0,31,0.00,,,0.00,VWS V14.01,2013-08-04 18:25:00,
2013-08-04 13:29:00,76.5,43.6,28.85,SSE,158,7.6,12.1,31,0.00,,,0.00,VWS V14.01,2013-08-04 18:29:00,
2013-08-04 13:30:00,76.5,43.6,28.85,SSE,158,7.6,12.1,31,0.00,,,0.00,VWS V14.01,2013-08-04 18:30:00,
2013-08-04 13:35:00,76.6,43.8,28.85,SSE,158,13.2,13.2,31,0.00,,,0.00,VWS V14.01,2013-08-04 18:35:00,
2013-08-04 13:40:00,76.8,44.8,28.82,SSW,202,7.6,13.2,32,0.00,,,0.00,VWS V14.01,2013-08-04 18:40:00,
2013-08-04 13:45:00,77.4,45.2,28.82,SSE,158,6.3,11.4,32,0.00,,,0.00,VWS V14.01,2013-08-04 18:45:00,
2013-08-04 13:50:00,77.5,45.4,28.82,SSE,158,5.8,12.5,32,0.00,,,0.00,VWS V14.01,2013-08-04 18:50:00,
2013-08-04 13:55:00,77.5,44.5,28.82,SSE,158,6.7,12.3,31,0.00,,,0.00,VWS V14.01,2013-08-04 18:55:00,
2013-08-04 14:00:00,77.9,44.9,28.82,South,180,10.3,13.0,31,0.00,,,0.00,VWS V14.01,2013-08-04 19:00:00,
2013-08-04 14:05:00,77.9,44.9,28.82,SSE,158,10.1,11.9,31,0.00,,,0.00,VWS V14.01,2013-08-04 19:05:00,
2013-08-04 14:10:00,77.9,45.7,28.82,South,180,6.5,10.3,32,0.00,,,0.00,VWS V14.01,2013-08-04 19:10:00,
2013-08-04 14:15:00,77.4,44.4,28.82,SSE,158,7.4,12.8,31,0.00,,,0.00,VWS V14.01,2013-08-04 19:15:00,
2013-08-04 14:20:00,78.1,45.0,28.82,SE,135,5.6,10.5,31,0.00,,,0.00,VWS V14.01,2013-08-04 19:20:00,
2013-08-04 14:25:00,78.3,45.2,28.82,SSE,158,9.6,10.5,31,0.00,,,0.00,VWS V14.01,2013-08-04 19:25:00,
2013-08-04 14:30:00,78.1,45.0,28.82,SE,135,9.2,11.0,31,0.00,,,0.00,VWS V14.01,2013-08-04 19:30:00,
2013-08-04 14:34:00,77.7,44.7,28.82,ESE,112,6.3,11.0,31,0.00,,,0.00,VWS V14.01,2013-08-04 19:34:00,
2013-08-04 14:35:00,77.7,44.7,28.82,ESE,112,6.3,11.0,31,0.00,,,0.00,VWS V14.01,2013-08-04 19:35:00,
2013-08-04 14:39:00,80.4,47.0,28.82,SSE,158,6.0,8.5,31,0.00,,,0.00,VWS V14.01,2013-08-04 19:39:00,
2013-08-04 14:40:00,80.4,47.0,28.82,SSE,158,6.0,8.5,31,0.00,,,0.00,VWS V14.01,2013-08-04 19:40:00,
2013-08-04 14:44:00,80.8,46.5,28.82,SE,135,8.7,12.3,30,0.00,,,0.00,VWS V14.01,2013-08-04 19:44:00,
2013-08-04 14:45:00,80.8,46.5,28.82,SE,135,8.7,12.3,30,0.00,,,0.00,VWS V14.01,2013-08-04 19:45:00,
2013-08-04 14:50:00,82.6,48.0,28.82,South,180,5.8,9.4,30,0.00,,,0.00,VWS V14.01,2013-08-04 19:50:00,
2013-08-04 14:54:00,82.8,47.3,28.82,SSE,158,14.8,14.8,29,0.00,,,0.00,VWS V14.01,2013-08-04 19:54:00,
2013-08-04 14:55:00,82.8,47.3,28.82,SSE,158,14.8,14.8,29,0.00,,,0.00,VWS V14.01,2013-08-04 19:55:00,
2013-08-04 15:00:00,82.9,47.5,28.82,South,180,7.4,14.8,29,0.00,,,0.00,VWS V14.01,2013-08-04 20:00:00,
2013-08-04 15:05:00,83.5,47.9,28.82,SSE,158,11.9,12.8,29,0.00,,,0.00,VWS V14.01,2013-08-04 20:05:00,
2013-08-04 15:09:00,83.8,48.2,28.79,SSE,158,11.0,13.2,29,0.00,,,0.00,VWS V14.01,2013-08-04 20:09:00,
2013-08-04 15:10:00,83.8,48.2,28.79,SSE,158,11.0,13.2,29,0.00,,,0.00,VWS V14.01,2013-08-04 20:10:00,
2013-08-04 15:15:00,83.7,48.1,28.79,SE,135,7.6,15.2,29,0.00,,,0.00,VWS V14.01,2013-08-04 20:15:00,
2013-08-04 15:20:00,83.7,48.1,28.79,SE,135,9.8,12.1,29,0.00,,,0.00,VWS V14.01,2013-08-04 20:20:00,
2013-08-04 15:25:00,84.0,48.4,28.79,SE,135,8.7,10.5,29,0.00,,,0.00,VWS V14.01,2013-08-04 20:25:00,
2013-08-04 15:30:00,83.3,46.8,28.79,SE,135,12.5,13.2,28,0.00,,,0.00,VWS V14.01,2013-08-04 20:30:00,
2013-08-04 15:35:00,83.1,46.7,28.79,SSE,158,5.8,13.6,28,0.00,,,0.00,VWS V14.01,2013-08-04 20:35:00,
2013-08-04 15:40:00,83.3,46.8,28.79,South,180,8.7,15.2,28,0.00,,,0.00,VWS V14.01,2013-08-04 20:40:00,
2013-08-04 15:44:00,84.0,48.4,28.79,SSE,158,5.8,11.0,29,0.00,,,0.00,VWS V14.01,2013-08-04 20:44:00,
2013-08-04 15:45:00,84.0,48.4,28.79,SSE,158,5.8,11.0,29,0.00,,,0.00,VWS V14.01,2013-08-04 20:45:00,
2013-08-04 15:50:00,84.0,45.5,28.79,SSE,158,5.6,10.3,26,0.00,,,0.00,VWS V14.01,2013-08-04 20:50:00,
2013-08-04 15:55:00,83.8,47.3,28.79,SSE,158,6.0,12.3,28,0.00,,,0.00,VWS V14.01,2013-08-04 20:55:00,
2013-08-04 16:00:00,83.8,45.3,28.79,SE,135,6.3,11.0,26,0.00,,,0.00,VWS V14.01,2013-08-04 21:00:00,
2013-08-04 16:05:00,83.1,43.7,28.79,SE,135,9.8,13.9,25,0.00,,,0.00,VWS V14.01,2013-08-04 21:05:00,
2013-08-04 16:10:00,83.1,44.7,28.79,SSE,158,6.3,12.5,26,0.00,,,0.00,VWS V14.01,2013-08-04 21:10:00,
2013-08-04 16:15:00,82.9,45.6,28.79,SE,135,10.1,13.4,27,0.00,,,0.00,VWS V14.01,2013-08-04 21:15:00,
2013-08-04 16:20:00,83.3,45.9,28.79,SSE,158,9.8,10.1,27,0.00,,,0.00,VWS V14.01,2013-08-04 21:20:00,
2013-08-04 16:25:00,83.3,46.8,28.79,ESE,112,7.6,11.2,28,0.00,,,0.00,VWS V14.01,2013-08-04 21:25:00,
2013-08-04 16:30:00,83.1,46.7,28.79,ESE,112,8.1,11.0,28,0.00,,,0.00,VWS V14.01,2013-08-04 21:30:00,
2013-08-04 16:35:00,83.3,46.8,28.79,South,180,5.8,8.7,28,0.00,,,0.00,VWS V14.01,2013-08-04 21:35:00,
2013-08-04 16:40:00,83.3,46.8,28.79,SE,135,6.7,11.0,28,0.00,,,0.00,VWS V14.01,2013-08-04 21:40:00,
2013-08-04 16:45:00,83.5,46.0,28.79,SE,135,11.0,11.0,27,0.00,,,0.00,VWS V14.01,2013-08-04 21:45:00,
2013-08-04 16:50:00,83.1,46.7,28.79,ESE,112,7.8,11.0,28,0.00,,,0.00,VWS V14.01,2013-08-04 21:50:00,
2013-08-04 16:55:00,83.1,46.7,28.79,SSE,158,9.8,10.1,28,0.00,,,0.00,VWS V14.01,2013-08-04 21:55:00,
2013-08-04 16:59:00,82.6,46.2,28.79,ESE,112,8.5,10.3,28,0.00,,,0.00,VWS V14.01,2013-08-04 21:59:00,
2013-08-04 17:00:00,82.6,46.2,28.79,ESE,112,8.5,10.3,28,0.00,,,0.00,VWS V14.01,2013-08-04 22:00:00,
2013-08-04 17:05:00,83.1,46.7,28.79,South,180,5.6,8.5,28,0.00,,,0.00,VWS V14.01,2013-08-04 22:05:00,
2013-08-04 17:10:00,83.3,46.8,28.79,ESE,112,6.0,7.4,28,0.00,,,0.00,VWS V14.01,2013-08-04 22:10:00,
2013-08-04 17:15:00,82.9,46.5,28.79,ESE,112,6.7,8.5,28,0.00,,,0.00,VWS V14.01,2013-08-04 22:15:00,
2013-08-04 17:20:00,83.1,47.6,28.79,ESE,112,5.4,10.5,29,0.00,,,0.00,VWS V14.01,2013-08-04 22:20:00,
2013-08-04 17:25:00,83.1,46.7,28.76,ESE,112,5.6,7.8,28,0.00,,,0.00,VWS V14.01,2013-08-04 22:25:00,
2013-08-04 17:29:00,82.4,46.1,28.76,SE,135,6.3,12.8,28,0.00,,,0.00,VWS V14.01,2013-08-04 22:29:00,
2013-08-04 17:30:00,82.4,46.1,28.76,SE,135,6.3,12.8,28,0.00,,,0.00,VWS V14.01,2013-08-04 22:30:00,
2013-08-04 17:35:00,82.2,46.8,28.76,SE,135,5.8,11.0,29,0.00,,,0.00,VWS V14.01,2013-08-04 22:35:00,
2013-08-04 17:40:00,82.4,46.1,28.76,ESE,112,6.0,8.5,28,0.00,,,0.00,VWS V14.01,2013-08-04 22:40:00,
2013-08-04 17:45:00,82.2,46.8,28.76,SE,135,6.0,9.0,29,0.00,,,0.00,VWS V14.01,2013-08-04 22:45:00,
2013-08-04 17:50:00,82.4,47.0,28.76,ESE,112,4.3,8.7,29,0.00,,,0.00,VWS V14.01,2013-08-04 22:50:00,
2013-08-04 17:55:00,82.0,46.7,28.76,SE,135,7.4,13.2,29,0.00,,,0.00,VWS V14.01,2013-08-04 22:55:00,
2013-08-04 18:00:00,81.9,45.6,28.76,ESE,112,5.4,10.1,28,0.00,,,0.00,VWS V14.01,2013-08-04 23:00:00,
2013-08-04 18:04:00,81.5,45.3,28.76,SE,135,6.5,10.1,28,0.00,,,0.00,VWS V14.01,2013-08-04 23:04:00,
2013-08-04 18:05:00,81.5,45.3,28.76,SE,135,6.5,10.1,28,0.00,,,0.00,VWS V14.01,2013-08-04 23:05:00,
2013-08-04 18:10:00,81.1,45.9,28.76,SE,135,8.5,12.5,29,0.00,,,0.00,VWS V14.01,2013-08-04 23:10:00,
2013-08-04 18:15:00,81.5,46.2,28.76,SSE,158,8.1,9.6,29,0.00,,,0.00,VWS V14.01,2013-08-04 23:15:00,
2013-08-04 18:20:00,80.6,44.5,28.76,ESE,112,5.6,8.5,28,0.00,,,0.00,VWS V14.01,2013-08-04 23:20:00,
2013-08-04 18:25:00,79.7,43.8,28.76,SSE,158,7.4,8.7,28,0.00,,,0.00,VWS V14.01,2013-08-04 23:25:00,
2013-08-04 18:30:00,79.5,43.6,28.76,SE,135,7.8,8.7,28,0.00,,,0.00,VWS V14.01,2013-08-04 23:30:00,
2013-08-04 18:34:00,78.6,43.7,28.76,SE,135,4.3,8.5,29,0.00,,,0.00,VWS V14.01,2013-08-04 23:34:00,
2013-08-04 18:35:00,78.6,43.7,28.76,SE,135,4.3,8.5,29,0.00,,,0.00,VWS V14.01,2013-08-04 23:35:00,
2013-08-04 18:40:00,77.5,43.7,28.76,SE,135,4.0,8.1,30,0.00,,,0.00,VWS V14.01,2013-08-04 23:40:00,
2013-08-04 18:45:00,77.2,43.4,28.76,SE,135,4.3,4.9,30,0.00,,,0.00,VWS V14.01,2013-08-04 23:45:00,
2013-08-04 18:50:00,77.0,43.2,28.76,SE,135,3.8,7.4,30,0.00,,,0.00,VWS V14.01,2013-08-04 23:50:00,
2013-08-04 18:55:00,76.8,43.9,28.76,SSE,158,4.7,6.0,31,0.00,,,0.00,VWS V14.01,2013-08-04 23:55:00,
2013-08-04 19:00:00,76.8,43.9,28.76,ESE,112,4.0,5.8,31,0.00,,,0.00,VWS V14.01,2013-08-05 00:00:00,
2013-08-04 19:05:00,76.6,43.8,28.76,SE,135,4.3,6.3,31,0.00,,,0.00,VWS V14.01,2013-08-05 00:05:00,
2013-08-04 19:10:00,76.6,44.6,28.76,SE,135,4.0,6.3,32,0.00,,,0.00,VWS V14.01,2013-08-05 00:10:00,
2013-08-04 19:15:00,76.6,44.6,28.76,SE,135,7.4,7.4,32,0.00,,,0.00,VWS V14.01,2013-08-05 00:15:00,
2013-08-04 19:20:00,77.0,44.9,28.76,ESE,112,4.9,7.4,32,0.00,,,0.00,VWS V14.01,2013-08-05 00:20:00,
2013-08-04 19:25:00,77.7,45.5,28.73,SE,135,4.0,6.5,32,0.00,,,0.00,VWS V14.01,2013-08-05 00:25:00,
2013-08-04 19:30:00,78.3,46.0,28.73,SE,135,4.7,6.9,32,0.00,,,0.00,VWS V14.01,2013-08-05 00:30:00,
2013-08-04 19:35:00,77.4,45.2,28.73,ESE,112,6.3,6.7,32,0.00,,,0.00,VWS V14.01,2013-08-05 00:35:00,
2013-08-04 19:40:00,77.7,45.5,28.73,ESE,112,5.4,6.3,32,0.00,,,0.00,VWS V14.01,2013-08-05 00:40:00,
2013-08-04 19:45:00,77.4,45.2,28.73,ESE,112,3.4,6.0,32,0.00,,,0.00,VWS V14.01,2013-08-05 00:45:00,
2013-08-04 19:50:00,77.0,44.9,28.73,SE,135,5.4,5.4,32,0.00,,,0.00,VWS V14.01,2013-08-05 00:50:00,
2013-08-04 19:55:00,75.7,44.6,28.73,ESE,112,3.8,5.8,33,0.00,,,0.00,VWS V14.01,2013-08-05 00:55:00,
2013-08-04 20:00:00,74.3,44.1,28.73,ESE,112,4.0,5.8,34,0.00,,,0.00,VWS V14.01,2013-08-05 01:00:00,
2013-08-04 20:05:00,73.6,44.3,28.73,ESE,112,2.5,4.5,35,0.00,,,0.00,VWS V14.01,2013-08-05 01:05:00,
2013-08-04 20:09:00,73.2,45.4,28.73,ESE,112,2.9,4.3,37,0.00,,,0.00,VWS V14.01,2013-08-05 01:09:00,
2013-08-04 20:10:00,73.2,45.4,28.73,ESE,112,2.9,4.3,37,0.00,,,0.00,VWS V14.01,2013-08-05 01:10:00,
2013-08-04 20:15:00,72.7,45.6,28.73,SE,135,2.9,3.1,38,0.00,,,0.00,VWS V14.01,2013-08-05 01:15:00,
2013-08-04 20:20:00,72.1,46.5,28.73,ESE,112,3.4,3.4,40,0.00,,,0.00,VWS V14.01,2013-08-05 01:20:00,
2013-08-04 20:24:00,71.8,46.8,28.76,ESE,112,3.4,3.6,41,0.00,,,0.00,VWS V14.01,2013-08-05 01:24:00,
2013-08-04 20:25:00,71.8,46.8,28.76,ESE,112,3.4,3.6,41,0.00,,,0.00,VWS V14.01,2013-08-05 01:25:00,
2013-08-04 20:29:00,71.1,46.8,28.76,SE,135,3.6,3.6,42,0.00,,,0.00,VWS V14.01,2013-08-05 01:29:00,
2013-08-04 20:30:00,71.1,46.8,28.76,SE,135,3.6,3.6,42,0.00,,,0.00,VWS V14.01,2013-08-05 01:30:00,
2013-08-04 20:34:00,70.7,46.5,28.76,ESE,112,2.9,3.6,42,0.00,,,0.00,VWS V14.01,2013-08-05 01:34:00,
2013-08-04 20:35:00,70.7,46.5,28.76,ESE,112,2.9,3.6,42,0.00,,,0.00,VWS V14.01,2013-08-05 01:35:00,
2013-08-04 20:39:00,70.2,46.6,28.73,ESE,112,3.4,3.6,43,0.00,,,0.00,VWS V14.01,2013-08-05 01:39:00,
2013-08-04 20:40:00,70.2,46.6,28.73,ESE,112,3.4,3.6,43,0.00,,,0.00,VWS V14.01,2013-08-05 01:40:00,
2013-08-04 20:45:00,69.6,46.8,28.73,ESE,112,3.1,3.8,44,0.00,,,0.00,VWS V14.01,2013-08-05 01:45:00,
2013-08-04 20:50:00,69.1,46.9,28.73,ENE,68,3.6,4.3,45,0.00,,,0.00,VWS V14.01,2013-08-05 01:50:00,
2013-08-04 20:54:00,68.7,46.5,28.73,ESE,112,2.5,3.8,45,0.00,,,0.00,VWS V14.01,2013-08-05 01:54:00,
2013-08-04 20:55:00,68.7,46.5,28.73,ESE,112,2.5,3.8,45,0.00,,,0.00,VWS V14.01,2013-08-05 01:55:00,
2013-08-04 20:59:00,68.2,46.6,28.73,ESE,112,2.7,2.9,46,0.00,,,0.00,VWS V14.01,2013-08-05 01:59:00,
2013-08-04 21:00:00,68.2,46.6,28.73,ESE,112,2.7,2.9,46,0.00,,,0.00,VWS V14.01,2013-08-05 02:00:00,
2013-08-04 21:04:00,67.8,46.3,28.73,ESE,112,2.5,2.9,46,0.00,,,0.00,VWS V14.01,2013-08-05 02:04:00,
2013-08-04 21:05:00,67.8,46.3,28.73,ESE,112,2.5,2.9,46,0.00,,,0.00,VWS V14.01,2013-08-05 02:05:00,
2013-08-04 21:10:00,67.5,46.5,28.73,ESE,112,1.6,2.5,47,0.00,,,0.00,VWS V14.01,2013-08-05 02:10:00,
2013-08-04 21:15:00,67.5,46.5,28.73,East,90,1.1,2.5,47,0.00,,,0.00,VWS V14.01,2013-08-05 02:15:00,
2013-08-04 21:19:00,67.5,46.5,28.73,ESE,112,0.0,1.1,47,0.00,,,0.00,VWS V14.01,2013-08-05 02:19:00,
2013-08-04 21:20:00,67.5,46.5,28.73,ESE,112,0.0,1.1,47,0.00,,,0.00,VWS V14.01,2013-08-05 02:20:00,
2013-08-04 21:24:00,66.9,46.6,28.73,ESE,112,0.0,0.0,48,0.00,,,0.00,VWS V14.01,2013-08-05 02:24:00,
2013-08-04 21:25:00,66.9,46.6,28.73,ESE,112,0.0,0.0,48,0.00,,,0.00,VWS V14.01,2013-08-05 02:25:00,
2013-08-04 21:29:00,66.6,46.3,28.73,ESE,112,0.0,1.1,48,0.00,,,0.00,VWS V14.01,2013-08-05 02:29:00,
2013-08-04 21:30:00,66.6,46.3,28.73,ESE,112,0.0,1.1,48,0.00,,,0.00,VWS V14.01,2013-08-05 02:30:00,
2013-08-04 21:35:00,66.2,46.5,28.73,ESE,112,0.0,0.0,49,0.00,,,0.00,VWS V14.01,2013-08-05 02:35:00,
2013-08-04 21:39:00,65.8,46.7,28.76,ESE,112,0.0,0.0,50,0.00,,,0.00,VWS V14.01,2013-08-05 02:39:00,
2013-08-04 21:40:00,65.8,46.7,28.76,ESE,112,0.0,0.0,50,0.00,,,0.00,VWS V14.01,2013-08-05 02:40:00,
2013-08-04 21:45:00,65.5,46.9,28.76,ESE,112,0.0,0.0,51,0.00,,,0.00,VWS V14.01,2013-08-05 02:45:00,
2013-08-04 21:50:00,65.3,47.2,28.76,ESE,112,0.0,0.0,52,0.00,,,0.00,VWS V14.01,2013-08-05 02:50:00,
2013-08-04 21:55:00,65.5,48.9,28.73,ESE,112,3.4,3.4,55,0.00,,,0.00,VWS V14.01,2013-08-05 02:55:00,
2013-08-04 22:00:00,65.5,49.9,28.73,ESE,112,3.4,3.8,57,0.00,,,0.00,VWS V14.01,2013-08-05 03:00:00,
2013-08-04 22:04:00,65.5,49.9,28.73,ESE,112,2.9,3.6,57,0.00,,,0.00,VWS V14.01,2013-08-05 03:04:00,
2013-08-04 22:05:00,65.5,49.9,28.73,ESE,112,2.9,3.6,57,0.00,,,0.00,VWS V14.01,2013-08-05 03:05:00,
2013-08-04 22:09:00,65.3,49.7,28.73,ESE,112,2.7,3.4,57,0.00,,,0.00,VWS V14.01,2013-08-05 03:09:00,
2013-08-04 22:10:00,65.3,49.7,28.73,ESE,112,2.7,3.4,57,0.00,,,0.00,VWS V14.01,2013-08-05 03:10:00,
2013-08-04 22:15:00,65.1,50.0,28.73,ESE,112,3.1,3.8,58,0.00,,,0.00,VWS V14.01,2013-08-05 03:15:00,
2013-08-04 22:20:00,64.9,49.8,28.73,ESE,112,0.0,3.8,58,0.00,,,0.00,VWS V14.01,2013-08-05 03:20:00,
2013-08-04 22:25:00,64.8,49.7,28.76,ESE,112,2.0,2.7,58,0.00,,,0.00,VWS V14.01,2013-08-05 03:25:00,
2013-08-04 22:30:00,64.8,50.1,28.76,ESE,112,3.1,3.8,59,0.00,,,0.00,VWS V14.01,2013-08-05 03:30:00,
2013-08-04 22:35:00,64.9,51.2,28.76,ESE,112,3.1,4.0,61,0.00,,,0.00,VWS V14.01,2013-08-05 03:35:00,
2013-08-04 22:40:00,65.1,51.3,28.73,SSE,158,3.4,4.0,61,0.00,,,0.00,VWS V14.01,2013-08-05 03:40:00,
2013-08-04 22:45:00,65.5,51.7,28.73,ESE,112,4.0,4.3,61,0.00,,,0.00,VWS V14.01,2013-08-05 03:45:00,
2013-08-04 22:50:00,65.7,51.4,28.73,ESE,112,4.0,6.3,60,0.00,,,0.00,VWS V14.01,2013-08-05 03:50:00,
2013-08-04 22:55:00,65.8,51.1,28.73,SE,135,5.4,6.3,59,0.00,,,0.00,VWS V14.01,2013-08-05 03:55:00,
2013-08-04 23:00:00,66.2,50.5,28.73,ESE,112,6.3,6.5,57,0.00,,,0.00,VWS V14.01,2013-08-05 04:00:00,
2013-08-04 23:04:00,66.6,50.4,28.73,SSE,158,5.6,6.3,56,0.00,,,0.00,VWS V14.01,2013-08-05 04:04:00,
2013-08-04 23:05:00,66.6,50.4,28.73,SSE,158,5.6,6.3,56,0.00,,,0.00,VWS V14.01,2013-08-05 04:05:00,
2013-08-04 23:09:00,66.9,50.2,28.73,ESE,112,6.0,9.6,55,0.00,,,0.00,VWS V14.01,2013-08-05 04:09:00,
2013-08-04 23:10:00,66.9,50.2,28.73,ESE,112,6.0,9.6,55,0.00,,,0.00,VWS V14.01,2013-08-05 04:10:00,
2013-08-04 23:15:00,67.1,49.9,28.73,SE,135,6.3,10.5,54,0.00,,,0.00,VWS V14.01,2013-08-05 04:15:00,
2013-08-04 23:20:00,67.5,49.2,28.73,SSE,158,7.8,8.5,52,0.00,,,0.00,VWS V14.01,2013-08-05 04:20:00,
2013-08-04 23:24:00,67.8,49.0,28.73,SE,135,7.2,9.0,51,0.00,,,0.00,VWS V14.01,2013-08-05 04:24:00,
2013-08-04 23:25:00,67.8,49.0,28.73,SE,135,7.2,9.0,51,0.00,,,0.00,VWS V14.01,2013-08-05 04:25:00,
2013-08-04 23:30:00,68.2,48.8,28.73,ESE,112,5.4,8.5,50,0.00,,,0.00,VWS V14.01,2013-08-05 04:30:00,
2013-08-04 23:35:00,68.0,48.7,28.73,SE,135,6.5,7.4,50,0.00,,,0.00,VWS V14.01,2013-08-05 04:35:00,
2013-08-04 23:40:00,68.0,48.7,28.73,SSE,158,5.8,10.3,50,0.00,,,0.00,VWS V14.01,2013-08-05 04:40:00,
2013-08-04 23:45:00,68.0,48.7,28.73,SSE,158,6.3,6.3,50,0.00,,,0.00,VWS V14.01,2013-08-05 04:45:00,
2013-08-04 23:50:00,67.8,49.0,28.73,SSE,158,6.3,11.0,51,0.00,,,0.00,VWS V14.01,2013-08-05 04:50:00,
2013-08-04 23:55:00,67.6,48.9,28.70,SSE,158,5.4,9.8,51,0.00,,,0.00,VWS V14.01,2013-08-05 04:55:00,